CW7364 Weather Reports


Display with metric or nautical units.
time (UTC)temp
F
wind
direction
speed
MPH
gust
MPH
rain 1hr
in
rain 24hr
in
rain mn
in
humidity
%
barometer
mb
20260906093037 77 0.0 0.0 0.00 0.00 0.00 81 1012.2
20260906092017 77 0.0 0.0 0.00 0.00 0.00 81 1012.2
20260906091017 78 0.0 0.0 0.00 0.00 0.00 80 1012.1
20260906090057 78 0.0 0.0 0.00 0.00 0.00 80 1012.1
20260906085017 78 0.0 0.0 0.00 0.00 0.00 79 1012.1
20260906084037 78 0.0 1.0 0.00 0.00 0.00 79 1011.9
20260906083016 79 0.0 0.0 0.00 0.00 0.00 78 1012.0
20260906082016 79 0.0 1.0 0.00 0.00 0.00 79 1011.9
20260906081017 79 0.0 0.0 0.00 0.00 0.00 78 1011.9
20260906080056 79 135 1.0 2.0 0.00 0.00 0.00 78 1012.0
20260906075036 79 0.0 3.0 0.00 0.00 0.00 78 1011.7
20260906074016 79 0.0 0.0 0.00 0.00 0.00 76 1011.8
20260906073017 79 0.0 1.0 0.00 0.00 0.00 75 1012.0
20260906072016 80 0.0 0.0 0.00 0.00 0.00 75 1012.1
20260906071016 80 135 1.0 2.0 0.00 0.00 0.00 75 1012.2
20260906070016 80 135 1.0 1.0 0.00 0.00 0.00 75 1012.1
20260906065016 80 0.0 2.0 0.00 0.00 0.00 74 1012.0
20260906064036 80 0.0 0.0 0.00 0.00 0.00 74 1012.2
20260906063036 80 0.0 0.0 0.00 0.00 0.00 73 1012.2
20260906062016 80 0.0 1.0 0.00 0.00 0.00 73 1012.3
20260906061016 80 0.0 0.0 0.00 0.00 0.00 73 1012.3
20260906060016 81 0.0 1.0 0.00 0.00 0.00 72 1012.3
20260906055016 81 0.0 2.0 0.00 0.00 0.00 71 1012.2
20260906054016 82 0.0 0.0 0.00 0.00 0.00 70 1012.1
20260906053016 82 0.0 0.0 0.00 0.00 0.00 69 1012.2
20260906052016 83 135 1.0 2.0 0.00 0.00 0.00 69 1012.3
20260906051016 83 135 1.0 2.0 0.00 0.00 0.00 69 1012.3
20260906050015 83 135 1.0 2.0 0.00 0.00 0.00 69 1012.3
20260906045017 83 0.0 2.0 0.00 0.00 0.00 68 1012.3
20260906044016 84 0.0 1.0 0.00 0.00 0.00 67 1012.3
20260906043037 84 0.0 0.0 0.00 0.00 0.00 66 1012.3
20260906042036 85 0.0 1.0 0.00 0.00 0.00 65 1012.3
20260906041016 85 135 1.0 3.0 0.00 0.00 0.00 64 1012.3
20260906040036 86 135 1.0 3.0 0.00 0.00 0.00 63 1012.3
20260906035017 86 135 2.0 4.0 0.00 0.00 0.00 62 1012.3
20260906034016 87 135 3.0 5.0 0.00 0.00 0.00 61 1012.3
20260906033016 87 135 3.0 4.0 0.00 0.00 0.00 60 1012.1
20260906032056 87 158 4.0 9.0 0.00 0.00 0.00 60 1012.0
20260906031016 87 135 4.0 8.0 0.00 0.00 0.00 59 1011.9
20260906030016 87 135 4.0 8.0 0.00 0.00 0.00 58 1011.7
20260906025016 86 158 1.0 9.0 0.00 0.00 0.00 57 1011.6
20260906024016 86 0.0 0.0 0.00 0.00 0.00 57 1011.5
20260906023036 86 0.0 0.0 0.00 0.00 0.00 57 1011.2
20260906022036 86 0.0 0.0 0.00 0.00 0.00 57 1011.0
20260906021016 87 0.0 1.0 0.00 0.00 0.00 55 1010.9
20260906020016 88 90 1.0 3.0 0.00 0.00 0.00 55 1010.8
20260906015016 88 90 2.0 4.0 0.00 0.00 0.00 54 1010.7
20260906014016 89 90 3.0 4.0 0.00 0.00 0.00 53 1010.6
20260906013036 89 90 3.0 6.0 0.00 0.00 0.00 52 1010.4
20260906012016 90 90 3.0 4.0 0.00 0.00 0.00 51 1010.3
20260906011016 91 90 3.0 4.0 0.00 0.00 0.00 50 1010.3
20260906010016 91 90 3.0 4.0 0.00 0.00 0.00 49 1010.1
20260906005016 92 113 2.0 4.0 0.00 0.00 0.00 47 1010.2
20260906004016 93 113 3.0 6.0 0.00 0.00 0.00 46 1010.1
20260906003036 94 113 5.0 10.0 0.00 0.00 0.00 45 1010.0
20260906002016 95 113 4.0 6.0 0.00 0.00 0.00 45 1010.1
20260906001036 96 113 4.0 7.0 0.00 0.00 0.00 44 1010.1
20260906000016 96 135 4.0 8.0 0.00 0.00 0.00 44 1010.0
20260905235036 96 135 5.0 9.0 0.00 0.00 0.00 44 1009.9
20260905234015 97 135 5.0 10.0 0.00 0.00 0.00 44 1009.9
20260905233015 97 135 5.0 9.0 0.00 0.00 0.00 43 1009.9
20260905232015 97 90 7.0 10.0 0.00 0.00 0.00 43 1009.9
20260905231015 98 90 6.0 12.0 0.00 0.00 0.00 42 1010.0
20260905230015 98 90 6.0 11.0 0.00 0.00 0.00 42 1009.9
20260905225016 98 90 4.0 7.0 0.00 0.00 0.00 43 1009.9
20260905224015 98 90 5.0 10.0 0.00 0.00 0.00 43 1009.9
20260905223016 98 113 6.0 11.0 0.00 0.00 0.00 43 1010.1
20260905222015 97 113 6.0 11.0 0.00 0.00 0.00 44 1010.1
20260905221015 99 113 5.0 9.0 0.00 0.00 0.00 42 1010.1
20260905220015 99 113 8.0 14.0 0.00 0.00 0.00 42 1010.3
20260905215017 99 113 7.0 12.0 0.00 0.00 0.00 42 1010.2
20260905214037 99 135 5.0 8.0 0.00 0.00 0.00 42 1010.3
20260905213017 99 135 6.0 13.0 0.00 0.00 0.00 41 1010.4
20260905212037 99 180 3.0 6.0 0.00 0.00 0.00 42 1010.3
20260905211037 99 90 5.0 11.0 0.00 0.00 0.00 42 1010.4
20260905210017 99 113 5.0 12.0 0.00 0.00 0.00 42 1010.7
20260905205015 99 293 2.0 5.0 0.00 0.00 0.00 41 1010.9
20260905204017 99 113 6.0 11.0 0.00 0.00 0.00 41 1011.0
20260905203017 99 135 6.0 9.0 0.00 0.00 0.00 40 1011.2
20260905202037 99 180 7.0 12.0 0.00 0.00 0.00 40 1011.4
20260905201017 99 180 4.0 8.0 0.00 0.00 0.00 42 1011.6
20260905200037 98 135 6.0 15.0 0.00 0.00 0.00 42 1011.7
20260905195017 99 113 7.0 15.0 0.00 0.00 0.00 42 1011.8
20260905194037 99 135 2.0 5.0 0.00 0.00 0.00 42 1011.9
20260905193017 98 158 6.0 11.0 0.00 0.00 0.00 43 1012.1
20260905192017 98 135 7.0 11.0 0.00 0.00 0.00 44 1012.3
20260905191016 98 113 6.0 14.0 0.00 0.00 0.00 43 1012.5
20260905190017 97 90 8.0 15.0 0.00 0.00 0.00 44 1012.5
20260905185017 98 180 4.0 12.0 0.00 0.00 0.00 44 1012.7
20260905184017 98 113 7.0 13.0 0.00 0.00 0.00 44 1012.8
20260905183016 97 135 6.0 11.0 0.00 0.00 0.00 46 1013.1
20260905182017 97 135 7.0 12.0 0.00 0.00 0.00 45 1013.1
20260905181016 97 158 4.0 10.0 0.00 0.00 0.00 47 1013.1
20260905180016 95 135 7.0 13.0 0.00 0.00 0.00 47 1013.4
20260905175016 95 113 4.0 10.0 0.00 0.00 0.00 49 1013.5
20260905174016 95 113 8.0 15.0 0.00 0.00 0.00 49 1013.7
20260905173036 95 90 5.0 10.0 0.00 0.00 0.00 50 1013.7
20260905172016 94 90 6.0 10.0 0.00 0.00 0.00 51 1013.9
20260905171016 94 135 6.0 11.0 0.00 0.00 0.00 51 1014.0
20260905170037 94 135 6.0 14.0 0.00 0.00 0.00 52 1014.0
20260905165016 94 180 3.0 7.0 0.00 0.00 0.00 53 1014.1
20260905164016 93 113 4.0 11.0 0.00 0.00 0.00 53 1014.0
20260905163017 94 135 3.0 10.0 0.00 0.00 0.00 51 1014.1
20260905162016 94 180 2.0 5.0 0.00 0.00 0.00 52 1014.1
20260905161016 92 113 2.0 6.0 0.00 0.00 0.00 55 1014.1
20260905160016 92 270 3.0 6.0 0.00 0.00 0.00 56 1014.2
20260905155016 92 203 3.0 5.0 0.00 0.00 0.00 56 1014.2
20260905154016 92 225 2.0 3.0 0.00 0.00 0.00 57 1014.2
20260905153016 91 203 2.0 4.0 0.00 0.00 0.00 60 1014.3
20260905152016 90 270 2.0 6.0 0.00 0.00 0.00 61 1014.3
20260905151016 89 225 1.0 6.0 0.00 0.00 0.00 63 1014.2
20260905150016 88 270 2.0 6.0 0.00 0.00 0.00 64 1014.1
20260905145036 88 180 1.0 4.0 0.00 0.00 0.00 66 1014.2
20260905144016 87 180 2.0 4.0 0.00 0.00 0.00 68 1014.0
20260905143016 85 203 2.0 4.0 0.00 0.00 0.00 70 1014.0
20260905142016 85 180 1.0 3.0 0.00 0.00 0.00 71 1013.8
20260905141035 84 203 1.0 4.0 0.00 0.00 0.00 72 1014.0
20260905140016 83 180 1.0 3.0 0.00 0.00 0.00 73 1014.0
20260905135016 83 180 2.0 5.0 0.00 0.00 0.00 74 1014.0
20260905134016 82 203 2.0 5.0 0.00 0.00 0.00 75 1013.9
20260905133015 81 203 1.0 2.0 0.00 0.00 0.00 77 1013.8
20260905132015 80 0.0 2.0 0.00 0.00 0.00 78 1013.7
20260905131035 79 225 1.0 2.0 0.00 0.00 0.00 81 1013.7
20260905130015 77 0.0 0.0 0.00 0.00 0.00 84 1013.5
20260905125016 75 0.0 0.0 0.00 0.00 0.00 85 1013.4
20260905124015 74 0.0 0.0 0.00 0.00 0.00 86 1013.3
20260905123015 73 0.0 0.0 0.00 0.00 0.00 87 1013.3
20260905122015 73 0.0 0.0 0.00 0.00 0.00 85 1013.2
20260905121017 74 0.0 0.0 0.00 0.00 0.00 84 1013.1
20260905120017 74 0.0 0.0 0.00 0.00 0.00 84 1013.2
20260905115057 74 0.0 0.0 0.00 0.00 0.00 83 1013.2
20260905114017 75 0.0 0.0 0.00 0.00 0.00 83 1013.0
20260905113017 75 225 2.0 4.0 0.00 0.00 0.00 82 1012.9
20260905112017 76 180 1.0 2.0 0.00 0.00 0.00 82 1012.9
20260905111017 76 180 1.0 2.0 0.00 0.00 0.00 82 1012.9
20260905110017 76 180 2.0 3.0 0.00 0.00 0.00 82 1012.9
20260905105017 76 180 1.0 2.0 0.00 0.00 0.00 81 1013.0
20260905104057 76 180 1.0 2.0 0.00 0.00 0.00 81 1012.9
20260905103017 77 180 1.0 2.0 0.00 0.00 0.00 80 1012.8
20260905102017 77 0.0 0.0 0.00 0.00 0.00 79 1012.7
20260905101017 77 180 1.0 2.0 0.00 0.00 0.00 79 1012.7
20260905100017 77 180 1.0 2.0 0.00 0.00 0.00 79 1012.7
20260905095017 77 0.0 0.0 0.00 0.00 0.00 79 1012.7
20260905094017 77 0.0 0.0 0.00 0.00 0.00 79 1012.8